(3) Juno
ephemeris date magn radius delta ra dec elong phase
Today1 Feb 20239.72.020 AU2.368 AU00h44m-03°34'57.6°24.3°
Opposition3 Mar 20248.62.678 AU1.687 AU10h54m+04°18'177.6°0.9°
(3) Juno - 2023-02-01
astro.vanbuitenen.nl


 
-1 year
-1 month
-1 day
Now
+1 day
+1 month
+1 year

The interactive orbit chart above shows the body's path through the solar system and its position at the given date. Green and blue lines are shown perpendicular to the ecliptic plane: Green if the path is above the ecliptic plane, blue if it is below. (Left-click and drag to rotate the view; Right-click and drag to move the view; Use scroll wheel to zoom in our out.)

The orbital elements of Juno are:

            e (Eccentricity)                : 0.2564677
            a (Semimajor axis)              : 2.6701368
            i (Inclination)                 : 12.99067
            Ω (Longitude of ascending node) : 169.84298
            ω (Argument of perihelion)      : 247.73655
            M (Mean anomaly)                : 351.82413
            Epoch                           : 2023 Feb 25

            L (Longitude of perihelion)     : 237.05387
            B (Latitude of perihelion)      : -12.00719
            P (Orbital period in years)     : 4.36            
        

The light curve chart below shows the estimated development of the minor planet's magnitude.


The all-sky chart below shows the path of the minor planet over the same period as the light curve. The current position is marked yellow.





The following chart shows the path of the minor planet in the next few days. The field of view is optimized for (~10x50) binoculars and finderscopes. A more printer-friendly version of the same chart can be found below.




Ephemerides:
Date       Time       RA (2000)    DEC (2000)    delta   radius  elong  phase   PA    magn
2023-02-01 00:00 UT   00 44 21.9   -03 34 54     2.368    2.020   57.6   24.3    72    9.7 
2023-02-01 00:19 UT   00 44 23.4   -03 34 45     2.369    2.020   57.6   24.3    72    9.7 
2023-02-02 00:00 UT   00 46 15.4   -03 24 12     2.377    2.018   57.1   24.2    72    9.7 
2023-02-03 00:00 UT   00 48 09.4   -03 13 28     2.385    2.017   56.6   24.1    72    9.7 
2023-02-04 00:00 UT   00 50 03.7   -03 02 42     2.393    2.016   56.1   23.9    72    9.7 
2023-02-05 00:00 UT   00 51 58.5   -02 51 53     2.401    2.015   55.6   23.8    72    9.7 
2023-02-06 00:00 UT   00 53 53.7   -02 41 02     2.408    2.014   55.1   23.7    72    9.7 
2023-02-07 00:00 UT   00 55 49.4   -02 30 09     2.416    2.013   54.6   23.5    73    9.7 
2023-02-08 00:00 UT   00 57 45.4   -02 19 14     2.424    2.012   54.2   23.4    73    9.7 
2023-02-09 00:00 UT   00 59 41.8   -02 08 17     2.432    2.011   53.7   23.3    73    9.7 
2023-02-10 00:00 UT   01 01 38.6   -01 57 19     2.440    2.010   53.2   23.1    73    9.7 
2023-02-11 00:00 UT   01 03 35.8   -01 46 18     2.447    2.009   52.7   23.0    73    9.7 
2023-02-12 00:00 UT   01 05 33.4   -01 35 17     2.455    2.008   52.2   22.9    74    9.7 
2023-02-13 00:00 UT   01 07 31.4   -01 24 14     2.463    2.007   51.8   22.7    74    9.7 
2023-02-14 00:00 UT   01 09 29.7   -01 13 10     2.470    2.007   51.3   22.6    74    9.7 
2023-02-15 00:00 UT   01 11 28.5   -01 02 04     2.478    2.006   50.8   22.4    74    9.7 
2023-02-16 00:00 UT   01 13 27.6   +00 50 58     2.485    2.005   50.4   22.3    74    9.7 
2023-02-17 00:00 UT   01 15 27.2   +00 39 50     2.492    2.004   49.9   22.2    74    9.7 


    Terminology:
            
    delta:  distance between minor planet and earth in AU
    radius: distance between minor planet and sun in AU
    magn:   magnitude (brightness) estimate    
    ra:     right ascension in hours (24h = 360deg)
    dec:    declination in degrees
    elong:  elongation in degrees (angle sun-earth-minor planet)    
    phase:  phase angle in degrees (angle sun-minor planet-earth)        
    AU:     Astronomical Unit (mean distance between earth and sun: 149597870.7 km
    

Orbital elements provided by the MPC (Minor Planet Center).
Calculations by a modified version of AAPlus, a C# implementation of the AA+ project by PJ Naughter from the algorithms presented in the book "Astronomical Algorithms" by Jean Meeus.
NGC2000 dso catalog and star labels from VizieR as provided by the Strasbourg astronomical Data Center.
Tycho2 catalog from the ESO archive.